Location: Vancouver
(49.2500°N, 123.1330°W)
Time: 00:31:12
(UTC-07:00)

Daily predictions for brighter satellites

Satellite Brightness Start Highest point End
(mag) Time Altitude Azimuth Time Altitude Azimuth Time Altitude Azimuth
Okean 3 4.2 00:08:13 48° NNE 00:08:13 48° NNE 00:11:21 10° NNE
Cosmos 2219 Rocket 2.1 00:08:40 72° SW 00:09:18 87° WNW 00:14:58 10° NNE
Cosmos 1975 Rocket 4.0 00:12:22 39° NE 00:12:22 39° NE 00:15:37 10° NNE
NOSS 0 Rocket 3.7 00:13:00 70° SSE 00:13:26 73° ESE 00:19:35 10° NNE
USA 81 4.2 00:22:54 61° ENE 00:22:54 61° ENE 00:27:54 10° NNE
S3M 4.5 00:20:54 40° SW 00:22:43 53° WNW 00:28:47 10° N
Terra 3.8 00:23:31 18° W 00:24:08 18° W 00:27:27 10° NW
Iridium 4 Rocket 4.3 00:20:24 10° NNW 00:23:52 32° WNW 00:23:52 32° WNW
Cosmos 883 Rocket 4.3 00:24:01 71° S 00:24:46 89° WNW 00:30:56 10° N
Cosmos 2297 3.6 00:21:32 10° NNW 00:27:18 85° ENE 00:27:35 80° ESE
H-2A R/B 4.4 00:26:14 10° WSW 00:27:38 11° W 00:29:02 10° WNW
Cosmos 1709 Rocket 3.9 00:21:47 10° N 00:28:13 83° W 00:29:05 68° SSW
Meteor 1-12 Rocket 4.4 00:24:46 10° N 00:30:35 62° ENE 00:31:07 60° E
COSMOS 2428 3.8 00:28:54 23° WSW 00:32:01 41° NW 00:37:26 10° NNE
NOSS 3-1 (C) 3.4 00:30:58 63° SW 00:32:04 88° NW 00:38:50 10° NE
ATLAS CENTAUR R/B 4.0 00:36:49 12° ENE 00:36:49 12° ENE 00:37:08 10° ENE
USA 229 DEB 4.4 00:28:34 10° WSW 00:35:15 52° NW 00:42:06 10° NE
USA 229 4.4 00:28:39 10° WSW 00:35:20 52° NW 00:42:12 10° NE
Cosmos 2369 Rocket 4.0 00:31:00 10° NNW 00:35:36 25° NE 00:38:41 16° E
Cosmos 2298 Rocket 4.4 00:35:01 10° NNW 00:39:53 53° W 00:39:53 53° W
Cosmos 468 Rocket 4.0 00:43:23 82° NNE 00:43:23 82° NNE 00:48:30 10° NNE
NOSS 3-1 (A) 3.3 00:45:19 73° SW 00:46:00 88° SE 00:52:46 10° NE
USA 267 3.9 00:41:31 10° E 00:47:49 52° NNE 00:54:07 10° WNW
ATLAS 2AS CENTAUR R/B 3.7 00:47:53 35° ESE 00:48:01 35° ESE 00:55:06 10° NE
Cosmos 1980 3.8 00:52:08 60° W 00:52:49 66° WNW 00:58:28 10° NNE
Cosmos 2074 Rocket 3.9 00:48:52 10° N 00:55:06 74° E 00:55:43 68° ESE
Cosmos 1544 Rocket 4.2 00:51:15 10° NNW 00:54:43 53° NNW 00:54:43 53° NNW
Cosmos 2285 Rocket 3.9 00:55:21 73° SSE 00:55:50 78° ESE 01:02:14 10° NNE
SL-16 R/B 2.4 00:57:02 59° E 00:57:02 59° E 01:02:11 10° NE
Cosmos 841 Rocket 3.9 01:02:18 54° ENE 01:02:18 54° ENE 01:06:38 10° NNE
Cosmos 1943 Rocket 4.2 00:57:31 10° N 01:02:00 23° NE 01:06:27 10° E
CZ-4B R/B 3.7 01:04:15 25° N 01:04:15 25° N 01:05:53 10° N
CZ-2C R/B 3.5 01:07:43 48° WNW 01:07:43 48° WNW 01:11:46 10° NNW
Cosmos 2333 Rocket 3.2 01:10:46 33° W 01:12:38 42° NW 01:18:08 10° NNE
Cosmos 1975 4.2 01:10:48 10° NNW 01:13:17 35° NNW 01:13:17 35° NNW
CZ-4C R/B 3.5 01:08:49 10° NW 01:15:15 37° WSW 01:15:15 37° WSW
Cosmos 1340 4.4 01:17:28 32° NNW 01:17:28 32° NNW 01:19:48 10° N
Cosmos 371 Rocket 3.5 01:21:07 67° NNE 01:21:07 67° NNE 01:25:24 10° NNE
Cosmos 2278 Rocket 3.9 01:16:27 10° NW 01:19:50 20° W 01:19:50 20° W
Cosmos 2237 Rocket 3.0 01:20:10 39° W 01:21:30 46° NW 01:27:00 10° NNE
Cosmos 1607 3.9 01:16:41 10° NW 01:23:04 84° NE 01:24:05 65° SE
Meteor 1-18 Rocket 4.4 01:23:00 64° W 01:23:23 66° WNW 01:29:16 10° N
ATLAS 3B R/B 2.6 01:17:09 10° NW 01:24:06 82° NE 01:25:39 56° SE
Cosmos 1455 Rocket 4.2 01:20:53 10° NNW 01:24:07 39° NW 01:24:07 39° NW
Meteor 1-13 Rocket 4.4 01:25:40 63° ESE 01:25:54 63° E 01:31:45 10° NNE
ALOS 2 4.4 01:33:44 23° WNW 01:33:44 23° WNW 01:36:11 10° NW
Meteor 2-4 Rocket 4.1 01:34:22 47° E 01:34:22 47° E 01:39:33 10° NNE
H-2A R/B 3.9 01:30:43 10° NNE 01:33:01 30° NE 01:33:01 30° NE
USA 238 DEB 3.8 01:29:21 10° NW 01:36:28 77° NE 01:39:25 39° SE
USA 238 3.8 01:29:27 10° NW 01:36:34 76° NE 01:39:34 38° SE
Meteor 1-19 Rocket 4.3 01:37:51 70° ESE 01:38:09 72° E 01:44:02 10° NNE
Cosmos 332 Rocket 4.4 01:38:59 50° NW 01:38:59 50° NW 01:43:34 10° NNE
CZ-2C R/B 3.3 01:34:43 10° N 01:39:54 46° WNW 01:40:31 44° W
Meteor 2-13 Rocket 4.5 01:35:29 10° NNW 01:41:29 62° W 01:41:45 61° WSW
Cosmos 1125 Rocket 3.9 01:41:57 10° NNW 01:46:29 54° WNW 01:46:29 54° WNW
Cosmos 2219 Rocket 4.2 01:50:20 12° W 01:54:05 21° NW 01:58:21 10° N
Cosmos 1943 4.2 01:54:30 34° ESE 01:54:37 34° ESE 01:59:40 10° NE
USA 215 3.3 01:49:19 10° ENE 01:55:45 56° SE 01:56:08 55° SSE
COSMOS 2455 4.5 01:52:17 10° NNW 01:57:41 32° NE 02:03:03 10° E
Cosmos 1461 4.4 01:57:36 10° NNW 02:01:20 34° NE 02:02:33 28° ENE
Cosmos 1763 Rocket 4.4 02:01:57 38° WNW 02:02:38 39° WNW 02:07:36 10° NNE
Nadezhda 1 Rocket 4.0 02:02:01 61° WSW 02:02:48 66° WNW 02:09:02 10° N
SL-8 Rocket 4.3 01:58:18 10° N 02:04:24 61° ENE 02:06:03 46° SE
Cosmos 44 4.5 02:03:08 10° NNW 02:07:13 35° NE 02:09:34 20° E
NOSS 3-2 (C) 4.4 02:00:21 10° NW 02:07:31 59° NE 02:15:23 10° ESE
NOSS 2-3 (D) 3.9 02:11:44 87° SSW 02:11:48 89° SE 02:17:40 10° NE
ATLAS CENTAUR R/B 2.2 02:13:04 47° NNW 02:13:04 47° NNW 02:16:31 10° NNE
Cosmos 1666 4.5 02:09:42 10° NNW 02:11:44 26° NW 02:11:44 26° NW
PSLV R/B 4.0 02:09:07 10° NNE 02:13:35 61° E 02:13:35 61° E
Cosmos 1603 3.5 02:13:53 76° SSW 02:14:22 88° ESE 02:20:09 10° NNE
Cosmos 1238 Rocket 3.5 02:14:56 68° WNW 02:14:56 68° WNW 02:20:33 10° N
Cosmos 2369 Rocket 2.0 02:14:37 10° NNW 02:20:14 75° WSW 02:20:27 74° SW
Cosmos 1295 Rocket 4.3 02:16:34 10° NNW 02:22:41 80° W 02:23:38 64° SSW
CENTAUR R/B 4.2 02:17:53 10° NW 02:24:52 41° NNE 02:32:31 10° E
Cosmos 1606 Rocket 3.8 02:20:31 10° NNW 02:24:20 64° NNW 02:24:20 64° NNW
Cosmos 2341 Rocket 4.0 02:19:12 10° NNW 02:25:21 64° W 02:26:10 59° SW
Meteor 1-23 Rocket 4.0 02:25:59 71° SSW 02:26:36 84° W 02:32:14 10° N
Cosmos 405 Rocket 3.9 02:30:48 37° NNW 02:30:48 37° NNW 02:33:23 10° N
USA 267 3.1 02:24:03 10° SE 02:30:37 84° SW 02:37:12 10° WNW
Cosmos 2228 3.2 02:28:52 10° N 02:33:17 68° ENE 02:33:19 67° E
Gbstr 26 Del rocket 4.4 02:30:07 36° WSW 02:33:54 88° SSE 02:41:30 10° ENE
Resurs 1-4 Rocket 4.1 02:32:39 10° NE 02:36:30 20° E 02:39:09 14° SE
Helios 1A Rocket 3.1 02:32:27 10° NNE 02:36:03 68° NNE 02:36:03 68° NNE
Meteor 1-15 Rocket 4.3 02:32:13 10° NNW 02:37:58 58° W 02:38:28 56° WSW
ATLAS 2AS CENTAUR R/B 3.1 02:35:16 40° WSW 02:38:32 75° NW 02:46:44 10° NE
CZ-2D R/B 4.0 02:36:08 10° NE 02:40:09 21° E 02:42:52 15° SE
SL-16 R/B 3.6 02:38:53 23° W 02:41:06 30° NW 02:46:04 10° NNE
Cosmos 1241 Rocket 4.5 02:43:34 53° SSW 02:45:18 87° SE 02:51:59 10° NE
Cosmos 1943 Rocket 2.1 02:40:47 10° NNW 02:46:30 85° WSW 02:48:01 51° SSE
Cosmos 292 Rocket 4.2 02:46:12 49° SE 02:46:43 52° ESE 02:51:27 10° NNE
Cosmos 540 Rocket 4.1 02:46:12 39° W 02:46:59 41° WNW 02:51:52 10° NNE
Cosmos 1726 Rocket 4.0 02:43:42 10° NNW 02:47:29 51° WNW 02:47:29 51° WNW
NOSS 3-2 (A) 3.9 02:42:35 10° NW 02:49:58 82° SW 02:58:02 10° SE
Cosmos 1959 Rocket 4.4 02:44:34 10° NNW 02:50:49 78° W 02:52:33 50° S
SL-08 R/B 4.4 02:45:07 10° N 02:51:29 85° W 02:53:28 47° S
Cosmos 44 Rocket 3.0 02:47:05 10° NW 02:51:52 88° SW 02:52:20 73° SSE
AQUA 4.5 02:49:19 10° NNE 02:53:55 46° E 02:55:00 39° SE
Okean 2 4.0 02:56:42 46° WNW 02:56:42 46° WNW 03:00:23 10° N
Meteor 1-4 Rocket 4.1 02:52:50 10° N 02:56:23 35° ENE 02:57:28 29° ESE
Cosmos 1025 Rocket 3.9 02:58:31 36° WNW 02:58:31 36° WNW 03:02:23 10° N
Cosmos 1812 Rocket 4.4 02:54:18 10° N 02:58:34 47° ENE 03:00:09 32° SE
Cosmos 1809 Rocket 4.3 02:53:25 10° NNW 02:59:34 79° W 03:01:28 47° S
BREEZE-M DEB (TANK) 3.5 03:01:03 42° SSE 03:01:27 43° SE 03:11:19 10° ENE
H-2A R/B 4.2 03:07:01 10° NNW 03:09:38 18° WNW 03:09:38 18° WNW
Cosmos 1437 Rocket 3.9 03:06:11 10° NNW 03:08:49 33° WNW 03:08:49 33° WNW
CBERS-1 4.0 03:07:04 10° NNE 03:12:13 75° ESE 03:13:42 47° S
Cosmos 2058 Rocket 3.7 03:08:35 10° NNW 03:12:17 40° WNW 03:12:17 40° WNW
ATLAS 3B R/B 3.8 03:08:47 10° WNW 03:12:52 23° W 03:12:52 23° W
IRS-1C 4.3 03:10:40 10° NNE 03:16:00 65° ESE 03:18:02 37° S
Cosmos 1680 Rocket 4.2 03:14:31 32° SSE 03:16:28 47° ESE 03:21:30 10° NNE
Aureole 1 Rocket 3.9 03:18:07 35° SSE 03:19:58 51° ESE 03:24:11 10° NE
IRS-1D 4.3 03:17:22 10° NNE 03:22:22 47° E 03:25:05 25° SSE
Iridium 2 4.4 03:20:15 10° NNW 03:23:30 42° WNW 03:23:30 42° WNW
SL-16 R/B 2.5 03:19:35 21° SSE 03:23:59 86° ENE 03:30:12 10° NNW
Cosmos 1821 Rocket 4.4 03:19:27 10° N 03:25:31 62° ENE 03:31:16 11° SSE
Cosmos 2218 Rocket 4.5 03:24:10 10° NNW 03:29:57 41° W 03:31:32 35° WSW
Cosmos 1626 Rocket 3.4 03:29:57 53° SSW 03:30:57 85° WNW 03:35:22 10° N
Genesis I 3.1 03:27:36 10° NW 03:31:36 89° ENE 03:34:36 17° SE
Cosmos 1656 Rocket 3.5 03:27:22 10° NNW 03:32:49 80° WSW 03:37:14 16° SSE
GEOS 3 Rocket 4.0 03:28:24 10° NE 03:33:37 57° SE 03:35:44 34° S
UNK 3.6 03:33:27 35° S 03:35:23 85° WSW 03:40:00 10° NNW
ARIANE 5 R/B 3.0 03:32:14 10° NNE 03:37:27 59° E 03:40:23 25° S
Cosmos 1943 3.7 03:36:18 31° WSW 03:38:32 47° NW 03:44:00 10° NNE
USA 215 3.5 03:32:24 10° ENE 03:38:53 66° NNW 03:43:28 20° W
IRS-P3 4.3 03:33:55 10° N 03:39:10 58° WNW 03:41:06 37° SW
SL-08 R/B 3.8 03:39:58 38° WSW 03:40:22 38° W 03:44:50 10° NNW
Cosmos 1461 4.1 03:36:43 10° NW 03:38:56 26° WNW 03:38:56 26° WNW
RESURS DK-1 3.4 03:40:03 28° SSE 03:41:32 38° ESE 03:45:23 10° NE
Cosmos 1371 Rocket 4.1 03:37:44 10° NNW 03:43:09 80° ENE 03:48:32 10° SSE
Cosmos 1805 3.6 03:39:14 10° N 03:43:10 65° ENE 03:45:25 24° SSE
COSMOS 2455 2.7 03:38:07 10° NW 03:44:07 69° WSW 03:50:04 10° SSE
Cosmos 1271 Rocket 3.3 03:43:24 10° N 03:47:07 55° ENE 03:49:53 17° SSE
Cosmos 44 3.6 03:44:23 10° NW 03:47:53 36° W 03:47:53 36° W
Cosmos 923 Rocket 4.0 03:46:41 36° SSW 03:48:58 78° WNW 03:54:21 10° NNE
Cosmos 1602 Rocket 3.8 03:49:47 40° SW 03:51:04 57° WNW 03:55:27 10° N
Cosmos 1934 Rocket 4.2 03:44:55 10° N 03:51:13 75° E 03:57:32 10° SSE
Tiangong 1 3.3 03:53:19 13° SE 03:53:19 13° SE 03:53:53 10° ESE
ATLAS CENTAUR R/B 3.9 03:50:13 10° WNW 03:52:26 14° NNW 03:54:35 10° N
Cosmos 1766 3.6 03:52:29 10° NNW 03:56:22 48° W 03:57:10 41° SW
EXPRESS MD2 3.8 03:50:52 10° W 03:58:24 90° SSW 04:01:59 10° ESE
NOSS 3-2 (C) 4.2 03:51:28 10° NW 03:58:32 47° WSW 04:06:08 10° S
OPS 6432 4.1 03:59:10 59° SW 03:59:41 82° NW 04:02:42 10° NE
Cosmos 1842 3.2 03:58:08 35° S 03:59:42 87° E 04:03:36 10° N
Abrixas 3.1 04:01:43 37° SE 04:01:43 37° SE 04:04:05 10° E
NPP 4.2 03:56:31 10° N 04:01:35 43° WNW 04:04:02 27° WSW
COBE Rocket 4.0 03:58:05 10° NNE 04:03:14 80° ESE 04:06:37 21° S
Cosmos 2369 Rocket 4.1 04:00:57 10° WNW 04:02:12 12° W 04:02:12 12° W
Cosmos 192 4.4 04:02:35 25° S 04:05:27 73° ESE 04:10:24 10° NNE
Cosmos 1544 3.1 04:04:02 10° NNW 04:07:42 61° W 04:09:10 33° SSW
USA 267 3.9 04:08:38 10° S 04:14:13 30° SW 04:19:50 10° WNW
CENTAUR R/B 3.0 04:08:37 10° NW 04:16:22 82° SW 04:24:46 10° SE
Resurs 1-4 Rocket 2.1 04:11:35 10° N 04:16:49 66° WNW 04:20:14 22° SSW
Cosmos 389 Rocket 3.4 04:14:40 10° N 04:18:15 50° ENE 04:21:47 10° SSE
Cosmos 2098 Rocket 3.1 04:16:25 10° N 04:19:32 48° ENE 04:22:21 10° SSE
Cosmos 1953 2.2 04:16:17 10° NNW 04:20:16 68° W 04:23:24 16° S
CZ-2D R/B 2.2 04:15:25 10° N 04:20:42 63° WNW 04:24:13 21° SW
ADEOS Rocket 3.0 04:15:15 10° N 04:21:03 69° WNW 04:25:57 18° SSW
MOZ.5/SAFIR/RUBIN 5/SL-8 3.7 04:16:44 10° S 04:21:22 74° WSW 04:26:05 10° NNW
NOSS 8 (A) 4.3 04:22:38 31° SW 04:24:07 86° SE 04:27:45 10° NE
Cosmos 2112 Rocket 4.2 04:21:15 23° SW 04:24:30 60° WNW 04:29:44 10° NNE
COSMOS 2406 3.2 04:21:54 20° SSW 04:26:00 86° WNW 04:31:48 10° NNE
Nadezhda 3 Rocket 4.4 04:22:54 21° SW 04:26:55 47° WNW 04:33:02 10° N
NOSS 3-4 (A) 3.7 04:24:01 21° SW 04:28:30 70° NW 04:35:07 10° NE
NOSS 3-4 (C) 3.6 04:24:07 21° SW 04:28:35 71° NW 04:35:14 10° NE
Cosmos 1470 2.8 04:24:44 10° N 04:28:39 80° E 04:32:33 10° SSE
Cosmos 1943 Rocket 3.8 04:26:17 10° WNW 04:29:22 15° W 04:29:30 15° W
Cosmos 1707 4.0 04:26:38 10° SSE 04:30:17 40° E 04:33:57 10° NNE
ATLAS 2AS CENTAUR R/B 4.3 04:23:39 10° W 04:30:53 35° NNW 04:38:13 10° NE
USA 161 1.5 04:29:03 20° S 04:30:56 60° W 04:33:49 10° NNW
Meteor 1-4 Rocket 4.1 04:28:28 10° NW 04:31:19 20° W 04:31:46 20° W
Cosmos 839 Rocket 4.1 04:25:22 10° NW 04:31:35 79° SW 04:38:43 10° SSE
Cosmos 1758 Rocket 3.5 04:30:15 16° SSW 04:33:46 81° W 04:38:09 10° N
Landsat 4 3.6 04:30:43 10° SSE 04:34:26 89° WSW 04:38:12 10° NNW
Cosmos 1758 3.8 04:31:19 10° NNW 04:35:13 42° W 04:38:05 16° SSW
Cosmos 1624 Rocket 4.2 04:31:38 10° NNW 04:36:37 47° WSW 04:41:35 10° S
Cosmos-2242 3.0 04:33:07 10° N 04:37:34 88° W 04:41:58 10° S
UNKNOWN OBJECT B 2.9 04:35:31 10° N 04:39:27 63° WNW 04:42:31 16° SSW
USA 32 4.2 04:40:01 14° SSW 04:44:26 55° W 04:49:37 10° N
ADEOS 4.2 04:41:28 10° N 04:46:19 40° WNW 04:50:12 15° SW
NOSS 2-2 (C) 4.1 04:44:26 13° SSW 04:48:00 53° SE 04:52:42 10° NE
Cosmos 921 Rocket 3.4 04:43:58 10° NNW 04:48:13 43° WSW 04:52:28 10° S
Cosmos 2056 Rocket 4.0 04:44:37 10° NW 04:49:36 40° WSW 04:54:29 10° S
Cosmos 1727 Rocket 4.0 04:48:10 10° S 04:54:21 89° W 05:00:35 10° N
Cosmos 1953 Rocket 3.9 04:51:14 13° SSW 04:54:58 49° WNW 04:59:20 10° N
PSLV R/B 4.3 04:52:01 10° NNE 04:56:04 64° ESE 05:00:09 10° S
Orbus 7S? 2.7 04:53:07 10° WNW 04:57:00 65° SW 04:59:35 10° SE
CZ-4B R/B 3.8 04:54:04 10° NNE 04:58:12 55° E 05:02:31 10° S
Cosmos 1153 Rocket 4.4 04:52:14 10° NNW 04:58:23 75° W 05:04:29 10° S
DNEPR-1 R/B 3.5 04:57:56 10° NW 05:02:07 60° SW 05:06:25 10° SSE
MOS 1 Rocket 3.1 04:58:34 10° N 05:02:50 64° WNW 05:07:11 10° SSW
SL-27 R/B 3.2 05:00:14 14° SW 05:02:54 38° WNW 05:06:19 10° N
Cosmos 1378 3.6 05:00:13 10° S 05:03:56 65° E 05:07:40 10° NNE
Lacrosse 5 rocket 2.3 05:01:53 10° SSW 05:06:24 50° SE 05:10:53 10° ENE
SL-16 R/B 3.9 05:04:39 11° SW 05:08:24 19° W 05:12:34 10° NW
MOS 1-B 4.4 05:07:21 10° NNE 05:13:09 70° WNW 05:18:54 10° SSW
Cosmos 1802 Rocket 4.4 05:06:42 10° N 05:13:11 76° E 05:19:36 10° SSE
CZ-2D R/B 4.3 05:11:54 10° N 05:15:36 33° WNW 05:19:14 10° SW
ARIANE 5 R/B 3.9 05:12:01 10° N 05:16:12 25° WNW 05:20:22 10° WSW
Cosmos 1733 4.1 05:13:14 10° NNW 05:16:35 30° W 05:19:54 10° SSW
Meteor 2-15 4.5 05:11:15 10° SSW 05:17:24 74° WNW 05:23:34 10° N
Okean O Rocket 1.7 05:14:33 10° NNE 05:19:02 86° E 05:23:28 10° SSW
RESURS DK-1 3.6 05:16:04 10° WSW 05:19:41 28° NW 05:23:18 10° NNE
USA 215 4.2 05:15:14 10° ENE 05:21:24 46° N 05:27:33 10° WNW
CZ-4B DEB 4.4 05:18:47 10° NNE 05:24:20 77° ESE 05:29:48 10° S
Cosmos 1452 Rocket 3.8 05:19:52 10° NNW 05:24:53 46° WSW 05:29:52 10° S
COSMOS 2487 2.6 05:21:22 10° SSW 05:24:55 79° ESE 05:28:31 10° NNE
Meteor 2-15 Rocket 4.5 05:18:55 10° SSW 05:25:04 76° W 05:31:15 10° N
ADEOS II 2.2 05:21:07 10° NNE 05:26:25 90° WNW 05:31:41 10° SSW
Tiangong 1 2.6 05:24:53 10° WSW 05:26:52 17° SSW 05:28:52 10° SSE
COSMOS 2455 4.5 05:26:25 10° WNW 05:28:56 13° W 05:31:27 10° SW
Cosmos 1459 Rocket 4.0 05:23:06 10° NNW 05:29:13 74° W 05:35:24 10° S
